SL-14 DEB, 45346

Orbit data source: Space-Track

SL-14 DEB, 45346 is space debris in LEO originally from a launch on Thu, 15 Aug 1991 UTC launched from the Plesetsk Missile And Space Complex (PKMTR). Debris objects in space refer to the collection of defunct objects orbiting the Earth. Examples of debris include non-operational satellites, rocket bodies, and fragments generated from explosions, collisions, or faulty payload assembly.

Loading next visibility...
Identifier
45346, 1991-056CF
Orbit
LEO
Country
Flag of CISCIS
Related business
Manufacturer
Unknown
Mission
Spacecraft
Bus & Motor
Unknown
Mass
Unknown
Launch date (UTC)
1991-08-15 (34 years ago)
Launch vehicle
Unknown
Launch site
Plesetsk Missile And Space Complex (PKMTR)
Object type
Payload
Rocket body
Debris
Shape & HBR
Unknown shape, 0.1 m
Radar Cross Section
Small (<0.1 m²)

Expand to show TLE details & history
Last TLE update: 11 hours ago

TLE from 11 hours ago
0 SL-14 DEB
1 45346U 91056CF  26035.48815650  .00004021  00000-0  74839-2 0  9996
2 45346  82.6314 220.6666 0087627 203.8957 155.8100 13.37556937287714
Epoch: 2026-02-04T11:42Z
TLE epoch observation values (Epoch: 2026-02-04T11:42:56.721Z)
Latitude
0.00003°
Longitude
-89.72375°
Altitude
1,181.261 km
Speed
7.234 km/s
True Right ascension
14h 42m 39s
True Declination
0° 00' 00"
Sunlit
Object was in daylight at epoch
Visualization orbit readout
Latitude
Unknown
Longitude
Unknown
Altitude
Unknown
Speed
Unknown
Apparent Right ascension
Unknown
Apparent Declination
Unknown
Sunlit
N/A
Visualization observer readout
Local Sidereal Time
00:43:59
Azimuth
Unknown
Elevation
Unknown
Doppler factor
Unknown
Orbital elements
Apogee altitude
1,181.272 km
Perigee altitude
1,049.941 km
Semi-major axis
7,493.743 km
Eccentricity
0.00876
Inclination
82.6314°
RAAN
220.6666°
Arg. of periapsis
203.8957°
True anomaly
156.21738°
Mean anomaly
155.81°
Eccentric anomaly
156.0141°
Mean motion
3.34576 °/min
Orbital period
107.6 mins
BSTAR
0.0074839
Loading maneuver chart data...
Computing Atmospheric mass density...
Loading historical data...
Loading historical data...
Loading historical data...
Loading historical data...
Loading historical data...
Loading historical data...
Loading historical data...

Documentation

Showing up to 5 results
|